Location: Unspecified
(0.0000°N, 0.0000°E)
Time: 04:38:56
(UTC+00:00)

BlueWalker 3 - Visible Passes

Search period start: 23 April 2025 00:00
Search period end: 03 May 2025 00:00
Orbit: 464 x 473 km, 53.2° (Epoch: 22 April)

Date Brightness Start Highest point End Pass type
(mag) Time Alt. Az. Time Alt. Az. Time Alt. Az.
01 May 3.9 19:03:24 10° S 19:04:08 14° SSE 19:04:08 14° SSE visible
02 May 3.4 18:32:11 10° SSE 18:34:33 16° SE 18:36:22 12° E visible
02 May 4.8 20:09:32 10° W 20:10:33 14° W 20:10:33 14° W visible
